Surface/Precipitation History
04/17/2015 19:05  to  4/18/2015 19:05
Change End Date:
Date/Time
(MDT)
Sf
Temp Chem Water Layer Surface Precipitation
Sf Sub Frz Factor Pct Depth IcePct Cond Salin Type Intens Accum Rate
04/18/2015 18:58 Dry 55.8F 61F - - - - - 0 mhos 0 None None - -
04/18/2015 18:50 Dry 55.9F 61F - - - - - 0 mhos 0 None None - -
04/18/2015 18:43 Dry 57.9F 61F - - - - - 0 mhos 0 None None - -
04/18/2015 18:40 Dry 57.6F 61F - - - - - 0 mhos 0 None None - -
04/18/2015 18:30 Dry 57.4F 61F - - - - - 0 mhos 0 None None - -
04/18/2015 18:28 Dry 57.7F 61F - - - - - 0 mhos 0 None None - -
04/18/2015 18:20 Dry 59.4F 61F - - - - - 0 mhos 0 None None - -
04/18/2015 18:13 Dry 60.6F 61F - - - - - 0 mhos 0 None None - -
04/18/2015 18:10 Dry 62.8F 61F - - - - - 0 mhos 0 None None - -
04/18/2015 17:59 Dry 60.4F 61F - - - - - 0 mhos 0 None None - -
04/18/2015 17:58 Dry 61.2F 61F - - - - - 0 mhos 0 None None - -
04/18/2015 17:49 Dry 59.4F 61F - - - - - 0 mhos 0 None None - -
04/18/2015 17:43 Dry 60.3F 61F - - - - - 0 mhos 0 None None - -
04/18/2015 17:39 Dry 60.8F 61F - - - - - 0 mhos 0 None None - -
04/18/2015 17:29 Dry 61.5F 61F - - - - - 0 mhos 0 None None - -
Date/Time
(MDT)
Sf
Temp Chem Water Layer Surface Precipitation
Sf Sub Frz Factor Pct Depth IcePct Cond Salin Type Intens Accum Rate
04/18/2015 17:28 Dry 63.0F 61F - - - - - 0 mhos 0 None None - -
04/18/2015 17:19 Dry 61.3F 61F - - - - - 0 mhos 0 None None - -
04/18/2015 17:13 Dry 61.0F 61F - - - - - 0 mhos 0 None None - -
04/18/2015 17:09 Dry 61.0F 61F - - - - - 0 mhos 0 None None - -
04/18/2015 16:59 Dry 60.6F 61F - - - - - 0 mhos 0 None None - -
04/18/2015 16:58 Dry 60.4F 61F - - - - - 0 mhos 0 None None - -
04/18/2015 16:49 Dry 59.9F 61F - - - - - 0 mhos 0 None None - -
04/18/2015 16:43 Dry 59.0F 61F - - - - - 0 mhos 0 None None - -
04/18/2015 16:39 Dry 59.0F 61F - - - - - 0 mhos 0 None None - -
04/18/2015 16:29 Dry 60.6F 61F - - - - - 0 mhos 0 None None - -
04/18/2015 16:28 Dry 61.2F 61F - - - - - 0 mhos 0 None None - -
04/18/2015 16:19 Dry 60.1F 61F - - - - - 0 mhos 0 None None - -
04/18/2015 16:13 Dry 59.0F 61F - - - - - 0 mhos 0 None None - -
04/18/2015 16:09 Dry 58.8F 61F - - - - - 0 mhos 0 None None - -
04/18/2015 15:59 Dry 59.2F 61F - - - - - 0 mhos 0 None None - -
Date/Time
(MDT)
Sf
Temp Chem Water Layer Surface Precipitation
Sf Sub Frz Factor Pct Depth IcePct Cond Salin Type Intens Accum Rate
04/18/2015 15:58 Dry 59.2F 62F - - - - - 0 mhos 0 None None - -
04/18/2015 15:49 Dry 57.6F 62F - - - - - 0 mhos 0 None None - -
04/18/2015 15:43 Dry 58.5F 62F - - - - - 0 mhos 0 None None - -
04/18/2015 15:39 Dry 57.2F 62F - - - - - 0 mhos 0 None None - -
04/18/2015 15:29 Dry 56.5F 62F - - - - - 0 mhos 0 None None - -
04/18/2015 15:28 Dry 56.5F 62F - - - - - 0 mhos 0 None None - -
04/18/2015 15:19 Dry 57.2F 62F - - - - - 0 mhos 0 None None - -
04/18/2015 15:13 Wet 57.6F 62F 32F 5 0% 0.00 in 0% 0 mhos 0 None None - -
04/18/2015 15:08 Wet 58.5F 62F 32F 5 0% 0.00 in 0% 0 mhos 0 None None - -
04/18/2015 14:58 Wet 58.1F 62F 32F 10 0% 0.00 in 0% 1 mhos 0 None None - -
04/18/2015 14:58 Wet 58.1F 62F 32F 10 0% 0.00 in 0% 1 mhos 0 None None - -
04/18/2015 14:48 Wet 56.7F 62F 32F 15 0% 0.00 in 0% 1 mhos 0 None None - -
04/18/2015 14:43 Wet 55.4F 62F 32F 15 0% 0.00 in 0% 1 mhos 0 None None - -
04/18/2015 14:38 Wet 54.0F 62F 32F 10 0% 0.00 in 0% 0 mhos 0 Yes - - -
04/18/2015 14:28 Wet 53.4F 62F 32F 10 0% 0.00 in 0% 0 mhos 0 None None - -
Date/Time
(MDT)
Sf
Temp Chem Water Layer Surface Precipitation
Sf Sub Frz Factor Pct Depth IcePct Cond Salin Type Intens Accum Rate
04/18/2015 14:28 Wet 53.4F 62F 32F 10 0% 0.00 in 0% 0 mhos 0 None None - -
04/18/2015 14:18 Wet 54.0F 62F 32F 10 0% 0.00 in 0% 0 mhos 0 None None - -
04/18/2015 14:13 Wet 54.3F 62F 32F 10 0% 0.00 in 0% 0 mhos 0 Yes - - -
04/18/2015 14:08 Wet 54.7F 62F 32F 15 0% 0.00 in 0% 0 mhos 0 Yes - - -
04/18/2015 13:58 Wet 54.7F 62F 32F 5 0% 0.00 in 0% 0 mhos 0 Yes - - -
04/18/2015 13:58 Wet 54.7F 62F 32F 5 0% 0.00 in 0% 0 mhos 0 Yes - - -
04/18/2015 13:48 Wet 54.0F 62F 32F 10 0% 0.00 in 0% 0 mhos 0 Yes - - -
04/18/2015 13:43 Wet 53.4F 62F 32F 15 0% 0.00 in 0% 0 mhos 0 Yes - - -
04/18/2015 13:38 Wet 52.5F 62F 32F 15 0% 0.00 in 0% 0 mhos 0 Yes - - -
04/18/2015 13:28 Wet 51.6F 62F 32F 10 0% 0.00 in 0% 0 mhos 0 Yes - - -
04/18/2015 13:28 Wet 51.6F 62F 32F 10 0% 0.00 in 0% 0 mhos 0 Yes - - -
04/18/2015 13:18 Wet 52.0F 62F 32F 15 0% 0.00 in 0% 0 mhos 0 Yes - - -
04/18/2015 13:13 Wet 52.0F 62F 32F 5 0% 0.00 in 0% 0 mhos 0 Yes - - -
04/18/2015 13:08 Wet 51.3F 62F 32F 5 0% 0.00 in 0% 0 mhos 0 Yes - - -
04/18/2015 12:59 Wet 50.4F 62F 32F 10 0% 0.00 in 0% 0 mhos 0 Yes - - -
Date/Time
(MDT)
Sf
Temp Chem Water Layer Surface Precipitation
Sf Sub Frz Factor Pct Depth IcePct Cond Salin Type Intens Accum Rate
04/18/2015 12:58 Wet 50.2F 62F 32F 5 0% 0.00 in 0% 0 mhos 0 Yes - - -
04/18/2015 12:48 Wet 48.9F 62F 32F 20 0% 0.00 in 0% 0 mhos 0 Yes - - -
04/18/2015 12:43 Wet 48.7F 62F 32F 10 0% 0.00 in 0% 0 mhos 0 Yes - - -
04/18/2015 12:38 Wet 48.4F 62F 32F 5 0% 0.00 in 0% 0 mhos 0 Yes - - -
04/18/2015 12:28 Wet 47.8F 62F 32F 10 0% 0.00 in 0% 0 mhos 0 Yes - - -
04/18/2015 12:28 Wet 47.8F 62F 32F 10 0% 0.00 in 0% 0 mhos 0 Yes - - -
04/18/2015 12:18 Wet 47.3F 62F 32F 10 0% 0.00 in 0% 0 mhos 0 Yes - - -
04/18/2015 12:13 Wet 47.1F 62F 32F 10 0% 0.00 in 0% 0 mhos 0 Yes - - -
04/18/2015 12:08 Wet 47.3F 62F 32F 50 0% 0.00 in 0% 0 mhos 0 Yes - - -
04/18/2015 11:58 Wet 47.5F 62F 32F 20 0% 0.00 in 0% 0 mhos 0 Yes - - -
04/18/2015 11:58 Wet 47.5F 62F 32F 20 0% 0.00 in 0% 0 mhos 0 Yes - - -
04/18/2015 11:48 Wet 48.0F 62F 32F 15 0% 0.00 in 0% 1 mhos 0 Yes - - -
04/18/2015 11:43 Wet 48.2F 62F 32F 15 0% 0.00 in 0% 1 mhos 0 Yes - - -
04/18/2015 11:37 Wet 48.2F 63F 32F 15 0% 0.00 in 0% 1 mhos 0 Yes - - -
04/18/2015 11:28 Wet 48.9F 63F 32F 25 0% 0.00 in 0% 2 mhos 0 Yes - - -
Date/Time
(MDT)
Sf
Temp Chem Water Layer Surface Precipitation
Sf Sub Frz Factor Pct Depth IcePct Cond Salin Type Intens Accum Rate
04/18/2015 11:27 Wet 48.9F 63F 32F 25 0% 0.00 in 0% 2 mhos 0 Yes - - -
04/18/2015 11:17 Wet 49.1F 63F 32F 40 0% 0.00 in 0% 2 mhos 0 Yes - - -
04/18/2015 11:13 Wet 49.5F 63F 32F 40 0% 0.00 in 0% 10 mhos 0 Yes - - -
04/18/2015 11:07 Wet 49.3F 63F 32F 50 0% 0.00 in 0% 6 mhos 0 Yes - - -
04/18/2015 10:58 Wet 49.1F 63F 32F 30 0% 0.00 in 0% 25 mhos 0 Yes - - -
04/18/2015 10:57 Wet 49.1F 63F 32F 30 0% 0.00 in 0% 25 mhos 0 Yes - - -
04/18/2015 10:47 Wet 49.8F 63F 32F 40 0% 0.00 in 0% 19 mhos 0 Yes - - -
04/18/2015 10:43 Wet 49.3F 63F 32F 50 0% 0.00 in 0% 12 mhos 0 Yes - - -
04/18/2015 10:37 Wet 49.6F 63F 32F 45 0% 0.00 in 0% 14 mhos 0 Yes - - -
04/18/2015 10:28 Wet 50.5F 63F 32F 50 0% 0.00 in 0% 13 mhos 0 Yes - - -
04/18/2015 10:27 Wet 50.7F 63F 32F 55 0% 0.00 in 0% 10 mhos 0 Yes - - -
04/18/2015 10:17 Wet 52.0F 63F 32F 65 0% 0.00 in 0% 1 mhos 0 Yes - - -
04/18/2015 10:13 Wet 52.3F 63F 32F 25 0% 0.00 in 0% 0 mhos 0 Yes - - -
04/18/2015 10:07 Wet 52.5F 63F 32F 30 0% 0.00 in 0% 0 mhos 0 Yes - - -
04/18/2015 09:58 Dry 53.2F 63F - - - - - 0 mhos 0 Yes - - -
Date/Time
(MDT)
Sf
Temp Chem Water Layer Surface Precipitation
Sf Sub Frz Factor Pct Depth IcePct Cond Salin Type Intens Accum Rate
04/18/2015 09:57 Dry 53.1F 63F - - - - - 0 mhos 0 Yes - - -
04/18/2015 09:47 Dry 54.9F 63F - - - - - 0 mhos 0 None None - -
04/18/2015 09:43 Dry 55.0F 63F - - - - - 0 mhos 0 None None - -
04/18/2015 09:37 Dry 55.6F 63F - - - - - 0 mhos 0 Yes - - -
04/18/2015 09:28 Dry 55.8F 63F - - - - - 0 mhos 0 None None - -
04/18/2015 09:27 Dry 56.1F 63F - - - - - 0 mhos 0 None None - -
04/18/2015 09:17 Dry 57.6F 63F - - - - - 0 mhos 0 None None - -
04/18/2015 09:13 Dry 56.8F 63F - - - - - 0 mhos 0 None None - -
04/18/2015 09:07 Dry 57.0F 63F - - - - - 0 mhos 0 None None - -
04/18/2015 08:58 Dry 55.8F 63F - - - - - 0 mhos 0 None None - -
04/18/2015 08:57 Dry 55.6F 63F - - - - - 0 mhos 0 None None - -
04/18/2015 08:47 Dry 54.7F 63F - - - - - 0 mhos 0 None None - -
04/18/2015 08:43 Dry 54.3F 63F - - - - - 0 mhos 0 None None - -
04/18/2015 08:37 Dry 53.6F 63F - - - - - 0 mhos 0 None None - -
04/18/2015 08:28 Dry 52.7F 63F - - - - - 0 mhos 0 None None - -
Date/Time
(MDT)
Sf
Temp Chem Water Layer Surface Precipitation
Sf Sub Frz Factor Pct Depth IcePct Cond Salin Type Intens Accum Rate
04/18/2015 08:27 Dry 52.7F 63F - - - - - 0 mhos 0 None None - -
04/18/2015 08:17 Dry 51.1F 63F - - - - - 0 mhos 0 None None - -
04/18/2015 08:13 Dry 51.1F 64F - - - - - 0 mhos 0 None None - -
04/18/2015 08:07 Dry 50.7F 64F - - - - - 0 mhos 0 None None - -
04/18/2015 07:59 Dry 50.2F 64F - - - - - 0 mhos 0 None None - -
04/18/2015 07:57 Dry 49.8F 64F - - - - - 0 mhos 0 None None - -
04/18/2015 07:47 Dry 49.5F 64F - - - - - 0 mhos 0 None None - -
04/18/2015 07:43 Dry 49.3F 64F - - - - - 0 mhos 0 None None - -
04/18/2015 07:37 Dry 48.6F 64F - - - - - 0 mhos 0 None None - -
04/18/2015 07:28 Dry 48.4F 64F - - - - - 0 mhos 0 None None - -
04/18/2015 07:27 Dry 48.4F 64F - - - - - 0 mhos 0 None None - -
04/18/2015 07:17 Dry 48.7F 64F - - - - - 0 mhos 0 None None - -
04/18/2015 07:13 Dry 48.7F 64F - - - - - 0 mhos 0 None None - -
04/18/2015 07:06 Dry 49.1F 64F - - - - - 0 mhos 0 None None - -
04/18/2015 06:58 Dry 48.9F 64F - - - - - 0 mhos 0 None None - -
Date/Time
(MDT)
Sf
Temp Chem Water Layer Surface Precipitation
Sf Sub Frz Factor Pct Depth IcePct Cond Salin Type Intens Accum Rate
04/18/2015 06:56 Dry 48.9F 64F - - - - - 0 mhos 0 None None - -
04/18/2015 06:46 Dry 48.2F 64F - - - - - 0 mhos 0 None None - -
04/18/2015 06:43 Dry 47.8F 64F - - - - - 0 mhos 0 None None - -
04/18/2015 06:36 Dry 47.5F 64F - - - - - 0 mhos 0 None None - -
04/18/2015 06:28 Dry 47.8F 64F - - - - - 0 mhos 0 None None - -
04/18/2015 06:26 Dry 47.7F 64F - - - - - 0 mhos 0 None None - -
04/18/2015 06:16 Dry 48.0F 64F - - - - - 0 mhos 0 None None - -
04/18/2015 06:13 Dry 48.0F 64F - - - - - 0 mhos 0 None None - -
04/18/2015 06:06 Dry 48.2F 64F - - - - - 0 mhos 0 None None - -
04/18/2015 05:58 Dry 48.6F 64F - - - - - 0 mhos 0 None None - -
04/18/2015 05:56 Dry 48.6F 64F - - - - - 0 mhos 0 None None - -
04/18/2015 05:46 Dry 48.9F 64F - - - - - 0 mhos 0 None None - -
04/18/2015 05:43 Dry 48.9F 64F - - - - - 0 mhos 0 None None - -
04/18/2015 05:36 Dry 49.3F 64F - - - - - 0 mhos 0 None None - -
04/18/2015 05:28 Dry 49.6F 64F - - - - - 0 mhos 0 None None - -
Date/Time
(MDT)
Sf
Temp Chem Water Layer Surface Precipitation
Sf Sub Frz Factor Pct Depth IcePct Cond Salin Type Intens Accum Rate
04/18/2015 05:26 Dry 49.5F 64F - - - - - 0 mhos 0 None None - -
04/18/2015 05:16 Dry 50.0F 64F - - - - - 0 mhos 0 None None - -
04/18/2015 05:13 Dry 50.0F 64F - - - - - 0 mhos 0 None None - -
04/18/2015 05:06 Dry 50.2F 64F - - - - - 0 mhos 0 None None - -
04/18/2015 04:58 Dry 50.4F 64F - - - - - 0 mhos 0 None None - -
04/18/2015 04:56 Dry 50.4F 64F - - - - - 0 mhos 0 None None - -
04/18/2015 04:46 Dry 50.7F 64F - - - - - 0 mhos 0 None None - -
04/18/2015 04:43 Dry 50.9F 64F - - - - - 0 mhos 0 None None - -
04/18/2015 04:36 Dry 50.9F 64F - - - - - 0 mhos 0 None None - -
04/18/2015 04:28 Dry 50.9F 64F - - - - - 0 mhos 0 None None - -
04/18/2015 04:26 Dry 51.1F 64F - - - - - 0 mhos 0 None None - -
04/18/2015 04:16 Dry 51.6F 64F - - - - - 0 mhos 0 None None - -
04/18/2015 04:13 Dry 51.6F 64F - - - - - 0 mhos 0 None None - -
04/18/2015 04:06 Dry 51.8F 64F - - - - - 0 mhos 0 None None - -
04/18/2015 03:58 Dry 52.2F 64F - - - - - 0 mhos 0 None None - -
Date/Time
(MDT)
Sf
Temp Chem Water Layer Surface Precipitation
Sf Sub Frz Factor Pct Depth IcePct Cond Salin Type Intens Accum Rate
04/18/2015 03:56 Dry 52.2F 64F - - - - - 0 mhos 0 None None - -
04/18/2015 03:46 Dry 52.5F 64F - - - - - 0 mhos 0 None None - -
04/18/2015 03:43 Dry 52.5F 64F - - - - - 0 mhos 0 None None - -
04/18/2015 03:36 Dry 52.7F 64F - - - - - 0 mhos 0 None None - -
04/18/2015 03:28 Dry 52.7F 64F - - - - - 0 mhos 0 None None - -
04/18/2015 03:25 Dry 52.7F 64F - - - - - 0 mhos 0 None None - -
04/18/2015 03:15 Dry 53.4F 64F - - - - - 0 mhos 0 None None - -
04/18/2015 03:13 Dry 53.6F 64F - - - - - 0 mhos 0 None None - -
04/18/2015 03:05 Dry 53.4F 64F - - - - - 0 mhos 0 None None - -
04/18/2015 02:58 Dry 53.8F 64F - - - - - 0 mhos 0 None None - -
04/18/2015 02:55 Dry 53.8F 64F - - - - - 0 mhos 0 None None - -
04/18/2015 02:45 Dry 54.1F 64F - - - - - 0 mhos 0 None None - -
04/18/2015 02:43 Dry 54.3F 64F - - - - - 0 mhos 0 None None - -
04/18/2015 02:35 Dry 54.5F 64F - - - - - 0 mhos 0 None None - -
04/18/2015 02:28 Dry 54.5F 64F - - - - - 0 mhos 0 None None - -
Date/Time
(MDT)
Sf
Temp Chem Water Layer Surface Precipitation
Sf Sub Frz Factor Pct Depth IcePct Cond Salin Type Intens Accum Rate
04/18/2015 02:25 Dry 54.7F 64F - - - - - 0 mhos 0 None None - -
04/18/2015 02:15 Dry 55.0F 64F - - - - - 0 mhos 0 None None - -
04/18/2015 02:13 Dry 55.0F 64F - - - - - 0 mhos 0 None None - -
04/18/2015 02:05 Dry 55.6F 64F - - - - - 0 mhos 0 None None - -
04/18/2015 01:58 Dry 55.8F 64F - - - - - 0 mhos 0 None None - -
04/18/2015 01:55 Dry 55.9F 64F - - - - - 0 mhos 0 None None - -
04/18/2015 01:45 Dry 56.3F 64F - - - - - 0 mhos 0 None None - -
04/18/2015 01:43 Dry 56.3F 64F - - - - - 0 mhos 0 None None - -
04/18/2015 01:35 Dry 56.7F 64F - - - - - 0 mhos 0 None None - -
04/18/2015 01:28 Dry 56.8F 64F - - - - - 0 mhos 0 None None - -
04/18/2015 01:25 Dry 57.0F 64F - - - - - 0 mhos 0 None None - -
04/18/2015 01:15 Dry 57.4F 64F - - - - - 0 mhos 0 None None - -
04/18/2015 01:13 Dry 57.4F 64F - - - - - 0 mhos 0 None None - -
04/18/2015 01:05 Dry 57.7F 64F - - - - - 0 mhos 0 None None - -
04/18/2015 00:58 Dry 57.9F 63F - - - - - 0 mhos 0 None None - -
Date/Time
(MDT)
Sf
Temp Chem Water Layer Surface Precipitation
Sf Sub Frz Factor Pct Depth IcePct Cond Salin Type Intens Accum Rate
04/18/2015 00:55 Dry 58.1F 63F - - - - - 0 mhos 0 None None - -
04/18/2015 00:44 Dry 58.3F 63F - - - - - 0 mhos 0 None None - -
04/18/2015 00:43 Dry 58.5F 64F - - - - - 0 mhos 0 None None - -
04/18/2015 00:34 Dry 58.8F 63F - - - - - 0 mhos 0 None None - -
04/18/2015 00:28 Dry 59.0F 63F - - - - - 0 mhos 0 None None - -
04/18/2015 00:24 Other - 63F - - - - - - - Yes - - -
04/18/2015 00:13 Dry 59.5F 63F - - - - - 0 mhos 0 None None - -
04/18/2015 00:04 Dry 60.1F 63F - - - - - 0 mhos 0 None None - -
04/17/2015 23:58 Dry 60.1F 63F - - - - - 0 mhos 0 None None - -
04/17/2015 23:54 Dry 60.3F 63F - - - - - 0 mhos 0 None None - -
04/17/2015 23:44 Dry 60.6F 63F - - - - - 0 mhos 0 None None - -
04/17/2015 23:34 Dry 61.0F 63F - - - - - 0 mhos 0 None None - -
04/17/2015 23:28 Dry 61.3F 63F - - - - - 0 mhos 0 None None - -
04/17/2015 23:24 Dry 61.5F 63F - - - - - 0 mhos 0 None None - -
04/17/2015 23:13 Dry 61.9F 63F - - - - - 0 mhos 0 None None - -
Date/Time
(MDT)
Sf
Temp Chem Water Layer Surface Precipitation
Sf Sub Frz Factor Pct Depth IcePct Cond Salin Type Intens Accum Rate
04/17/2015 23:13 Dry 61.9F 63F - - - - - 0 mhos 0 None None - -
04/17/2015 23:03 Dry 62.4F 63F - - - - - 0 mhos 0 None None - -
04/17/2015 22:58 Dry 62.6F 63F - - - - - 0 mhos 0 None None - -
04/17/2015 22:53 Dry 62.8F 63F - - - - - 0 mhos 0 None None - -
04/17/2015 22:43 Dry 63.5F 63F - - - - - 0 mhos 0 None None - -
04/17/2015 22:43 Dry 63.5F 63F - - - - - 0 mhos 0 None None - -
04/17/2015 22:33 Dry 63.7F 63F - - - - - 0 mhos 0 None None - -
04/17/2015 22:28 Dry 64.0F 62F - - - - - 0 mhos 0 None None - -
04/17/2015 22:23 Dry 64.4F 62F - - - - - 0 mhos 0 None None - -
04/17/2015 22:13 Dry 64.9F 62F - - - - - 0 mhos 0 None None - -
04/17/2015 22:13 Dry 64.9F 62F - - - - - 0 mhos 0 None None - -
04/17/2015 22:03 Dry 65.5F 62F - - - - - 0 mhos 0 None None - -
04/17/2015 21:58 Dry 65.8F 62F - - - - - 0 mhos 0 None None - -
04/17/2015 21:53 Dry 66.0F 62F - - - - - 0 mhos 0 None None - -
04/17/2015 21:43 Dry 66.7F 62F - - - - - 0 mhos 0 None None - -
Date/Time
(MDT)
Sf
Temp Chem Water Layer Surface Precipitation
Sf Sub Frz Factor Pct Depth IcePct Cond Salin Type Intens Accum Rate
04/17/2015 21:33 Dry 67.5F 62F - - - - - 0 mhos 0 None None - -
04/17/2015 21:28 Dry 67.6F 62F - - - - - 0 mhos 0 None None - -
04/17/2015 21:23 Dry 67.8F 62F - - - - - 0 mhos 0 None None - -
04/17/2015 21:13 Dry 68.7F 62F - - - - - 0 mhos 0 None None - -
04/17/2015 21:03 Dry 69.4F 62F - - - - - 0 mhos 0 None None - -
04/17/2015 20:58 Dry 69.8F 62F - - - - - 0 mhos 0 None None - -
04/17/2015 20:53 Dry 70.3F 62F - - - - - 0 mhos 0 None None - -
04/17/2015 20:43 Dry 70.9F 62F - - - - - 0 mhos 0 None None - -
04/17/2015 20:43 Dry 70.9F 62F - - - - - 0 mhos 0 None None - -
04/17/2015 20:33 Dry 72.1F 62F - - - - - 0 mhos 0 None None - -
04/17/2015 20:28 Dry 72.3F 61F - - - - - 0 mhos 0 None None - -
04/17/2015 20:23 Dry 72.9F 61F - - - - - 0 mhos 0 None None - -
04/17/2015 20:13 Dry 73.9F 61F - - - - - 0 mhos 0 None None - -
04/17/2015 20:13 Dry 73.9F 61F - - - - - 0 mhos 0 None None - -
04/17/2015 20:03 Dry 75.2F 61F - - - - - 0 mhos 0 None None - -
Date/Time
(MDT)
Sf
Temp Chem Water Layer Surface Precipitation
Sf Sub Frz Factor Pct Depth IcePct Cond Salin Type Intens Accum Rate
04/17/2015 19:58 Dry 75.7F 61F - - - - - 0 mhos 0 None None - -
04/17/2015 19:53 Dry 76.6F 61F - - - - - 0 mhos 0 None None - -
04/17/2015 19:43 Dry 78.3F 61F - - - - - 0 mhos 0 None None - -
04/17/2015 19:42 Dry 78.3F 61F - - - - - 0 mhos 0 None None - -
04/17/2015 19:32 Dry 80.4F 61F - - - - - 0 mhos 0 None None - -
04/17/2015 19:28 Dry 81.0F 61F - - - - - 0 mhos 0 None None - -
04/17/2015 19:22 Dry 81.7F 61F - - - - - 0 mhos 0 None None - -
04/17/2015 19:13 Dry 82.9F 61F - - - - - 0 mhos 0 None None - -
04/17/2015 19:12 Dry 82.9F 61F - - - - - 0 mhos 0 None None - -
Change End Date:
Copyright © 1998-2005 Surface Systems, Inc.
All Rights Reserved
Send comments about the data to:
SCAN Web ® is a registered trademark of Surface Systems, Inc.
SCAN Web Version 5.6